[[{"header":{"parameterUnit":"m.s-1","parameterCategory":2,"la1":30.2991,"la2":30.254,"lo1":-89.0895,"lo2":-89.0444,"dy":0.0017,"dx":0.0017,"nx":28,"ny":28,"refTime":"2023-07-18T21:00:00:Z","depth":"0","parameterNumber":2,"parameterNumberName":"U-component_of_CURRENTS"},"data":[0,0,0,0,0,0,0,0,0,0,0,0,0,0,0,0,0,0,0,0,0,0,0,0,0,0,0,0,0,0,0,0,0,0,0,0,0,0,0,0,0,0,0,0,0,0,0,0,0,0,0,0,0,0,0,0,0,0,0.2128,0.2128,0,0.2152,0.2153,0.2153,0.2132,0.213,0.2129,0.2128,0.2134,0.2135,0.2136,0,0,0,0,0,0,0,0,0,0,0,0,0,0.1992,0.1996,0.2128,0.2128,0.2128,0.2152,0.2153,0.2154,0.2132,0.213,0.2129,0.2127,0.2134,0.2135,0.2137,0,0,0,0,0,0,0,0,0,0,0,0,0,0.2041,0.1997,0.2128,0.2118,0.2117,0.2152,0.2153,0.2154,0.2132,0.213,0.2128,0.2127,0.2133,0.2135,0.2137,0.2185,0,0,0.2143,0.2143,0,0,0,0,0,0,0,0,0.2038,0.2046,0.2119,0.2118,0.2117,0.2134,0.2107,0.2162,0.2133,0.213,0.2128,0.2126,0.2131,0.2133,0.2147,0.2185,0.2185,0.2143,0.2144,0.2145,0.2145,0,0,0,0,0,0,0,0.2035,0.2045,0.2141,0.2119,0.2118,0.2087,0.2093,0.2117,0.2143,0.213,0.2128,0.2125,0.2131,0.2145,0.2147,0.2185,0.2143,0.2144,0.2146,0.2146,0.2327,0.233,0,0,0,0,0,0,0.2032,0.2043,0.214,0.2141,0.2069,0.2091,0.2098,0.2133,0.2143,0.2142,0.2127,0.2124,0.2143,0.2145,0.2147,0.2238,0.2145,0.2147,0.2148,0.2323,0.2327,0.2331,0,0,0,0,0,0,0.203,0.2042,0.2139,0.2087,0.2096,0.2096,0.2135,0.2135,0.2149,0.214,0.2139,0.2141,0.2142,0.2144,0.2194,0.2236,0.2147,0.2149,0.2319,0.2324,0.2329,0.2398,0,0,0,0,0,0,0.2026,0.2042,0.2076,0.2088,0.2099,0.2176,0.2137,0.2136,0.2148,0.2145,0.2152,0.215,0.214,0.2191,0.2196,0.2237,0.2151,0.2314,0.2321,0.2328,0.2392,0.2406,0.2418,0,0,0,0,0,0.2022,0.208,0.2079,0.209,0.2145,0.2177,0.2182,0.2174,0.2151,0.2177,0.2186,0.215,0.2238,0.2196,0.22,0.2243,0.2311,0.2319,0.2327,0.2386,0.2403,0.2417,0,0,0,0,0,0,0.2042,0.2084,0.2082,0.2151,0.2165,0.2172,0.2197,0.2184,0.2213,0.2206,0.2193,0.2195,0.2263,0.2253,0.2207,0.2322,0.2271,0.228,0.2314,0.233,0.2343,0.2337,0.2152,0,0,0,0,0,0.2062,0.2113,0.2135,0.2186,0.2201,0.2199,0.2212,0.2203,0.222,0.2229,0.2232,0.2253,0.2305,0.2313,0.2353,0.2404,0.2426,0.244,0.2453,0.2464,0.2467,0.2564,0.2585,0.2358,0.2358,0.2358,0,0,0.207,0.2108,0.2129,0.2192,0.2204,0.2235,0.2205,0.223,0.2253,0.2228,0.2274,0.2304,0.2336,0.2405,0.2432,0.2393,0.2545,0.2474,0.2482,0.248,0.2574,0.2596,0.2616,0.2364,0.2363,0.2362,0,0,0.211,0.2161,0.2208,0.2233,0.226,0.2268,0.2276,0.2291,0.2304,0.2352,0.2357,0.2414,0.246,0.2499,0.2525,0.2637,0.2624,0.2649,0.2689,0.2783,0.2802,0.2819,0.2885,0.2907,0.2638,0.2639,0.2639,0,0.2116,0.2185,0.2222,0.227,0.2286,0.2285,0.2316,0.2346,0.237,0.2398,0.2376,0.2497,0.2512,0.2616,0.2652,0.2663,0.2705,0.2617,0.2798,0.2815,0.283,0.2894,0.2917,0.2643,0.2642,0.2642,0.2641,0,0.2178,0.223,0.2262,0.2324,0.2356,0.2384,0.2416,0.2451,0.2458,0.248,0.258,0.262,0.2683,0.2711,0.2709,0.2837,0.2828,0.2814,0.2747,0.2857,0.2918,0.2941,0.2649,0.2647,0.2646,0.2645,0,0,0.2194,0.2284,0.2291,0.2314,0.238,0.2402,0.2473,0.2533,0.2569,0.2624,0.2688,0.2792,0.2804,0.2836,0.2855,0.2924,0.307,0.2909,0.2912,0.2956,0.3272,0.3289,0.3315,0.3086,0.3091,0.3094,0.3271,0,0.222,0.229,0.2343,0.2397,0.2429,0.2471,0.2531,0.2589,0.2635,0.2703,0.278,0.2856,0.2856,0.2885,0.2968,0.3046,0.3133,0.3022,0.3175,0.3179,0.3166,0.3344,0.3363,0.3525,0.3293,0.3297,0.3299,0,0.2254,0.23,0.2345,0.2418,0.2438,0.2472,0.2551,0.2606,0.272,0.2763,0.2861,0.2915,0.3047,0.3016,0.3224,0.3154,0.3226,0.3279,0.3287,0.3292,0.3241,0.338,0.3575,0.3401,0.3334,0.3331,0.3329,0,0.2209,0.2298,0.2323,0.2347,0.2435,0.2468,0.2515,0.2616,0.2666,0.28,0.2846,0.301,0.3076,0.322,0.334,0.3295,0.3555,0.3502,0.3593,0.3593,0.3634,0.3631,0.3663,0.3668,0.3667,0.3667,0.3666,0,0.2208,0.223,0.2295,0.2309,0.2348,0.2426,0.2479,0.2554,0.2662,0.2738,0.2862,0.2951,0.3132,0.329,0.3395,0.3587,0.3616,0.3649,0.3667,0.366,0.3658,0.3523,0.343,0.3673,0.3672,0.3671,0.367,0,0.2147,0.2188,0.222,0.2299,0.232,0.2341,0.2432,0.2485,0.2588,0.2691,0.274,0.2935,0.3159,0.3342,0.3578,0.3648,0.3752,0.3878,0.3847,0.3859,0.3752,0.3664,0.3633,0.3584,0.4015,0.4017,0.4019,0,0.2116,0.2125,0.2182,0.2196,0.2226,0.2271,0.2316,0.2429,0.2495,0.2683,0.2741,0.2973,0.3145,0.3504,0.3729,0.3976,0.3824,0.4088,0.4009,0.3794,0.371,0.3504,0.3448,0.4094,0.4096,0.4098,0.41,0,0.2066,0.2077,0.2101,0.2127,0.2159,0.2202,0.2277,0.2313,0.2468,0.2563,0.2727,0.2874,0.3254,0.3525,0.3856,0.4026,0.3916,0.4127,0.3942,0.3825,0.3573,0.3517,0.3886,0.4115,0.4113,0.4112,0.4111,0.4111,0.2012,0.2009,0.2038,0.2059,0.2096,0.2135,0.2161,0.2259,0.2348,0.2499,0.2661,0.2872,0.3274,0.3756,0.3902,0.4105,0.3995,0.4064,0.3993,0.3814,0.371,0.4097,0.431,0.4309,0.4309,0.4309,0.4308,0,0.1948,0.1959,0.198,0.2003,0.2023,0.2068,0.2144,0.2179,0.2266,0.2434,0.2574,0.296,0.3296,0.3632,0.3985,0.3947,0.3855,0.3878,0.3588,0.356,0.3971,0.3915,0.4007,0.4008,0.4008,0.4008,0.4008,0.4008,0.1916,0.1907,0.1925,0.1928,0.1951,0.1973,0.2005,0.2069,0.218,0.2359,0.2549,0.273,0.3109,0.3493,0.3648,0.3679,0.3412,0.3364,0.3241,0.3499,0.3507,0.3515,0.3437,0.3429,0.3428,0.2789,0.2784,0.278]},{"header":{"parameterUnit":"m.s-1","parameterCategory":2,"la1":30.2991,"la2":30.254,"lo1":-89.0895,"lo2":-89.0444,"dy":0.0017,"dx":0.0017,"nx":28,"ny":28,"refTime":"2023-07-18T21:00:00:Z","depth":"0","parameterNumber":3,"parameterNumberName":"V-component_of_CURRENTS"},"data":[0,0,0,0,0,0,0,0,0,0,0,0,0,0,0,0,0,0,0,0,0,0,0,0,0,0,0,0,0,0,0,0,0,0,0,0,0,0,0,0,0,0,0,0,0,0,0,0,0,0,0,0,0,0,0,0,0,0,0.0556,0.0556,0,0.0497,0.0496,0.0496,0.043,0.0429,0.0428,0.0427,0.0357,0.0356,0.0355,0,0,0,0,0,0,0,0,0,0,0,0,0,0.0545,0.0546,0.0556,0.0556,0.0555,0.0497,0.0496,0.0496,0.043,0.0429,0.0428,0.0426,0.0357,0.0356,0.0355,0,0,0,0,0,0,0,0,0,0,0,0,0,0.0525,0.0547,0.0557,0.0514,0.051,0.0497,0.0496,0.0495,0.043,0.0429,0.0427,0.0426,0.0358,0.0356,0.0355,0.0378,0,0,0.0351,0.035,0,0,0,0,0,0,0,0,0.0527,0.0526,0.0521,0.0517,0.0512,0.0469,0.0467,0.0455,0.0431,0.0461,0.0427,0.0425,0.0394,0.039,0.0383,0.0375,0.0372,0.0351,0.035,0.0349,0.0349,0,0,0,0,0,0,0,0.0528,0.0528,0.0534,0.0521,0.0515,0.0475,0.0472,0.0464,0.0438,0.0459,0.0454,0.0446,0.0391,0.0385,0.0381,0.0371,0.0351,0.035,0.0349,0.0348,0.0384,0.0385,0,0,0,0,0,0,0.054,0.053,0.0536,0.0532,0.0515,0.0477,0.0473,0.0485,0.0438,0.0429,0.0448,0.0443,0.0388,0.0383,0.0378,0.0408,0.0349,0.0348,0.0347,0.0382,0.0384,0.0386,0,0,0,0,0,0,0.054,0.0542,0.0538,0.0527,0.0524,0.0479,0.0493,0.0484,0.0473,0.0429,0.042,0.0444,0.0386,0.038,0.0378,0.0404,0.0348,0.0346,0.038,0.0383,0.0385,0.0464,0,0,0,0,0,0,0.054,0.0543,0.0562,0.0529,0.0525,0.0544,0.0494,0.0484,0.0471,0.0464,0.0424,0.0415,0.0385,0.038,0.0377,0.0401,0.0345,0.0378,0.0381,0.0384,0.0459,0.0469,0.0477,0,0,0,0,0,0.0541,0.0584,0.0564,0.0564,0.0551,0.0546,0.0541,0.0502,0.0472,0.0483,0.0451,0.0416,0.0398,0.0381,0.0376,0.0401,0.0376,0.038,0.0384,0.0455,0.0467,0.0477,0,0,0,0,0,0,0.0595,0.058,0.0557,0.0595,0.0573,0.0534,0.0549,0.0511,0.0494,0.0486,0.0436,0.0428,0.0437,0.0414,0.0396,0.0423,0.0383,0.0387,0.0439,0.045,0.0459,0.0469,0.0344,0,0,0,0,0,0.0615,0.0641,0.0608,0.0638,0.0635,0.0589,0.0583,0.055,0.0526,0.0515,0.0484,0.0461,0.0453,0.0446,0.0435,0.0451,0.0419,0.0466,0.0475,0.0483,0.049,0.0466,0.0473,0.0399,0.0399,0.0399,0,0,0.0637,0.0639,0.0647,0.065,0.0634,0.064,0.0583,0.0581,0.0579,0.0513,0.0518,0.0492,0.0465,0.048,0.0482,0.0461,0.0489,0.0488,0.0494,0.0497,0.0471,0.0478,0.0484,0.0402,0.0401,0.0401,0,0,0.0698,0.0704,0.0738,0.073,0.0713,0.0687,0.0688,0.0651,0.0634,0.0634,0.0586,0.0576,0.0566,0.0546,0.0536,0.0593,0.0539,0.0593,0.0644,0.0622,0.0627,0.0631,0.0603,0.0604,0.0596,0.0596,0.0597,0,0.0727,0.0759,0.0745,0.0773,0.0769,0.0713,0.073,0.0717,0.0678,0.0674,0.0651,0.0628,0.06,0.0608,0.0624,0.0612,0.0587,0.0602,0.0632,0.0635,0.0638,0.0608,0.0608,0.0601,0.06,0.06,0.0599,0,0.0792,0.0819,0.0846,0.0858,0.0858,0.0867,0.0836,0.0833,0.0804,0.0778,0.0779,0.074,0.0721,0.0717,0.0687,0.07,0.0671,0.0645,0.06,0.065,0.0616,0.0614,0.0607,0.0605,0.0604,0.0603,0,0,0.0848,0.0883,0.0889,0.0901,0.0896,0.0899,0.0917,0.091,0.0916,0.089,0.0898,0.088,0.0842,0.0829,0.0785,0.0766,0.0762,0.072,0.0717,0.0686,0.0708,0.0695,0.0691,0.0737,0.0737,0.0738,0.0675,0,0.0896,0.0957,0.0959,0.1001,0.1022,0.0992,0.1012,0.0999,0.0984,0.0985,0.0945,0.094,0.089,0.0876,0.0854,0.079,0.0763,0.0781,0.067,0.0667,0.0643,0.0691,0.071,0.0657,0.0674,0.0673,0.0673,0,0.0944,0.0981,0.103,0.1061,0.1068,0.1084,0.1093,0.1102,0.1096,0.1086,0.1072,0.1032,0.1009,0.0952,0.0873,0.0887,0.0806,0.075,0.0746,0.0705,0.0652,0.061,0.0653,0.0471,0.0671,0.0671,0.0671,0,0.0965,0.1024,0.1062,0.1072,0.1102,0.112,0.113,0.1132,0.1142,0.1145,0.1153,0.1113,0.1092,0.1007,0.0902,0.0883,0.081,0.0762,0.067,0.0667,0.0648,0.0643,0.0497,0.0694,0.0694,0.0694,0.0694,0,0.1003,0.1035,0.1077,0.1098,0.1141,0.1152,0.1187,0.1196,0.1209,0.123,0.1201,0.1207,0.1104,0.1048,0.0937,0.082,0.0834,0.069,0.0658,0.0677,0.0676,0.0487,0.0389,0.0692,0.0692,0.0693,0.0693,0,0.1012,0.104,0.1086,0.1134,0.115,0.1178,0.1217,0.1242,0.126,0.1287,0.1291,0.1276,0.1221,0.1114,0.0981,0.0866,0.0659,0.0693,0.0725,0.0698,0.0435,0.0343,0.0199,0.0132,0.0579,0.0578,0.0577,0,0.1015,0.1044,0.1104,0.113,0.1153,0.1195,0.1224,0.1256,0.1285,0.1326,0.1345,0.1319,0.1313,0.1145,0.0952,0.0776,0.0635,0.0653,0.0614,0.0434,0.0305,0.0259,0.021,0.0615,0.0614,0.0614,0.0614,0,0.1024,0.1046,0.1084,0.1142,0.1181,0.1227,0.1276,0.1305,0.1347,0.1387,0.1424,0.1432,0.1295,0.1173,0.096,0.0806,0.0542,0.0642,0.0448,0.0323,0.027,0.0187,0.063,0.0613,0.0613,0.0613,0.0613,0.0613,0.102,0.1046,0.11,0.115,0.1201,0.1261,0.1299,0.1358,0.142,0.1505,0.1504,0.1586,0.1412,0.1137,0.0892,0.0482,0.0475,0.0354,0.0257,0.0227,0.0164,0.0606,0.0557,0.0556,0.0556,0.0556,0.0556,0,0.1014,0.1055,0.1105,0.1174,0.123,0.126,0.1335,0.1385,0.1467,0.1594,0.1655,0.1721,0.1422,0.1109,0.0577,0.0193,0.0064,-0.0013,-0.0093,-0.0125,0.0259,0.026,0.0154,0.0154,0.0154,0.0154,0.0155,0.0155,0.1016,0.1061,0.1095,0.1184,0.1235,0.1311,0.1354,0.1444,0.1555,0.1766,0.1928,0.2056,0.1847,0.0793,0.0043,-0.015,-0.0432,-0.0486,-0.0621,-0.0396,-0.037,-0.0345,-0.0368,-0.0604,-0.0605,-0.0937,-0.0941,-0.0944]}],[{"header":{"parameterUnit":"m.s-1","parameterCategory":2,"la1":30.2991,"la2":30.254,"lo1":-89.0895,"lo2":-89.0444,"dy":0.0017,"dx":0.0017,"nx":28,"ny":28,"refTime":"2023-07-18T21:00:00:Z","depth":"2","parameterNumber":2,"parameterNumberName":"U-component_of_CURRENTS"},"data":[0,0,0,0,0,0,0,0,0,0,0,0,0,0,0,0,0,0,0,0,0,0,0,0,0,0,0,0,0,0,0,0,0,0,0,0,0,0,0,0,0,0,0,0,0,0,0,0,0,0,0,0,0,0,0,0,0,0,0.0337,0.0339,0,0.0447,0.0448,0.045,0.0496,0.0496,0.0496,0.0496,0.0571,0.0573,0.0575,0,0,0,0,0,0,0,0,0,0,0,0,0,0.0174,0.0176,0.0337,0.0339,0.034,0.0447,0.0448,0.045,0.0496,0.0496,0.0496,0.0496,0.057,0.0573,0.0575,0,0,0,0,0,0,0,0,0,0,0,0,0,0.0259,0.0177,0.0337,0.0377,0.0382,0.0447,0.0449,0.045,0.0496,0.0496,0.0496,0.0496,0.057,0.0573,0.0576,0.0597,0,0,0.0585,0.0586,0,0,0,0,0,0,0,0,0.0254,0.0265,0.037,0.0375,0.038,0.0459,0.0419,0.0498,0.0496,0.0452,0.0496,0.0496,0.0532,0.0538,0.0557,0.06,0.0603,0.0585,0.0587,0.0589,0.0589,0,0,0,0,0,0,0,0.0248,0.026,0.0379,0.0372,0.0378,0.0392,0.0404,0.0434,0.0489,0.0455,0.0459,0.0474,0.0534,0.0554,0.0559,0.0604,0.0585,0.0588,0.059,0.0591,0.0738,0.074,0,0,0,0,0,0,0.0238,0.0255,0.0376,0.0383,0.0317,0.0395,0.0409,0.0433,0.049,0.0499,0.0474,0.0476,0.0549,0.0555,0.0562,0.0654,0.0589,0.0591,0.0593,0.0736,0.0739,0.0741,0,0,0,0,0,0,0.0234,0.0248,0.0371,0.0322,0.0339,0.0398,0.0425,0.0435,0.0472,0.0504,0.0513,0.0502,0.0549,0.0557,0.0613,0.0655,0.0593,0.0596,0.0734,0.0737,0.074,0.0798,0,0,0,0,0,0,0.0229,0.0246,0.0264,0.0321,0.0341,0.0422,0.0426,0.0437,0.0481,0.0484,0.0531,0.0537,0.055,0.0608,0.0616,0.0658,0.0598,0.0731,0.0735,0.0739,0.0793,0.0803,0.081,0,0,0,0,0,0.0223,0.025,0.0265,0.028,0.0363,0.0423,0.0435,0.0475,0.0482,0.0506,0.0542,0.0537,0.0638,0.0612,0.0621,0.0665,0.0729,0.0734,0.0739,0.0789,0.0801,0.081,0,0,0,0,0,0,0.0192,0.0259,0.0276,0.0324,0.0374,0.0432,0.0461,0.0484,0.0533,0.0539,0.0562,0.0572,0.0635,0.0643,0.0614,0.072,0.0683,0.069,0.0719,0.073,0.0738,0.0748,0.0601,0,0,0,0,0,0.0192,0.0233,0.0292,0.0333,0.0358,0.041,0.0441,0.047,0.0517,0.0539,0.0577,0.0617,0.066,0.0688,0.0722,0.0779,0.0788,0.0814,0.0823,0.083,0.0845,0.0887,0.0901,0.0756,0.0756,0.0756,0,0,0.0192,0.0235,0.0258,0.0329,0.0371,0.0424,0.0429,0.0484,0.0534,0.0539,0.062,0.0646,0.0681,0.0748,0.0778,0.0762,0.0878,0.0836,0.0841,0.0853,0.0893,0.0907,0.092,0.0759,0.0759,0.0758,0,0,0.0217,0.025,0.0295,0.0339,0.0406,0.044,0.0459,0.0529,0.0565,0.0638,0.0658,0.0711,0.0779,0.0818,0.0842,0.0919,0.0918,0.0932,0.099,0.1032,0.1044,0.1054,0.109,0.1103,0.0941,0.0941,0.0941,0,0.0215,0.0281,0.0316,0.0372,0.0413,0.045,0.0507,0.0553,0.0634,0.0675,0.0671,0.0793,0.0814,0.0904,0.0936,0.0939,0.0961,0.0945,0.1042,0.1053,0.1063,0.1096,0.111,0.0945,0.0944,0.0944,0.0944,0,0.0277,0.033,0.0361,0.0444,0.0488,0.0542,0.0604,0.0658,0.07,0.075,0.0845,0.0882,0.0959,0.0973,0.0982,0.1074,0.1067,0.1041,0.1012,0.108,0.1112,0.1125,0.0949,0.0948,0.0947,0.0946,0,0,0.028,0.0383,0.0398,0.0442,0.053,0.0573,0.0657,0.0746,0.0805,0.0879,0.0964,0.1043,0.1067,0.1097,0.1115,0.1153,0.1239,0.1138,0.1139,0.1167,0.1339,0.1255,0.1261,0.1232,0.1235,0.1237,0.1334,0,0.0324,0.0423,0.0469,0.0564,0.0617,0.0673,0.0745,0.0825,0.089,0.0978,0.1033,0.1118,0.1113,0.1157,0.12,0.123,0.1277,0.1215,0.1274,0.1276,0.1188,0.1275,0.1153,0.1223,0.1347,0.1349,0.1351,0,0.0376,0.0436,0.0528,0.0624,0.0653,0.0715,0.0827,0.0901,0.1017,0.1068,0.116,0.1204,0.1305,0.1268,0.1374,0.1339,0.1357,0.1364,0.1367,0.1279,0.1218,0.1175,0.1242,0.1373,0.1371,0.1369,0.1368,0,0.0361,0.0478,0.0548,0.0584,0.0697,0.0754,0.0824,0.0936,0.1,0.1139,0.1191,0.1307,0.1368,0.1421,0.1454,0.1432,0.1537,0.15,0.1444,0.1438,0.1341,0.1321,0.1573,0.1573,0.1572,0.1572,0.1572,0,0.0386,0.0445,0.0549,0.0588,0.0675,0.076,0.0858,0.0943,0.1057,0.1131,0.1243,0.1302,0.1409,0.1476,0.1496,0.1518,0.158,0.148,0.1467,0.1357,0.1338,0.1464,0.145,0.1576,0.1575,0.1574,0.1574,0,0.036,0.043,0.051,0.0629,0.067,0.0735,0.0864,0.0925,0.1046,0.1145,0.1197,0.133,0.1428,0.1507,0.159,0.156,0.1588,0.1573,0.1435,0.1403,0.1455,0.1444,0.1543,0.1541,0.1539,0.1538,0.1537,0,0.0358,0.0397,0.0517,0.0557,0.0615,0.0717,0.0777,0.091,0.0968,0.1137,0.1169,0.1316,0.1371,0.1472,0.1483,0.1527,0.1575,0.1419,0.1344,0.148,0.1458,0.1448,0.1439,0.1251,0.1248,0.1245,0.1243,0,0.034,0.0381,0.0435,0.052,0.0589,0.0661,0.0761,0.0791,0.0939,0.1013,0.1108,0.1172,0.129,0.1292,0.1353,0.1341,0.1405,0.1359,0.1571,0.1255,0.1206,0.1183,0.1184,0.1218,0.122,0.1222,0.1224,0.1225,0.0311,0.0336,0.0404,0.0484,0.055,0.06,0.0631,0.0705,0.077,0.0875,0.097,0.1044,0.111,0.1136,0.1149,0.118,0.1238,0.1195,0.1204,0.1216,0.1143,0.1091,0.1069,0.107,0.1072,0.1073,0.1074,0,0.0278,0.0322,0.037,0.0446,0.0481,0.0558,0.0613,0.0611,0.064,0.0751,0.0826,0.0817,0.0836,0.0954,0.095,0.0946,0.0937,0.0935,0.0932,0.0954,0.0975,0.089,0.0749,0.0749,0.0749,0.0748,0,0,0.0261,0.0291,0.0321,0.0371,0.0428,0.0455,0.0473,0.0468,0.0516,0.0562,0.0637,0.0725,0.0838,0.0759,0.0771,0.0776,0.0852,0.0741,0.0989,0.1,0.1021,0.1101,0.0993,0,0,0,0,0]},{"header":{"parameterUnit":"m.s-1","parameterCategory":2,"la1":30.2991,"la2":30.254,"lo1":-89.0895,"lo2":-89.0444,"dy":0.0017,"dx":0.0017,"nx":28,"ny":28,"refTime":"2023-07-18T21:00:00:Z","depth":"2","parameterNumber":3,"parameterNumberName":"V-component_of_CURRENTS"},"data":[0,0,0,0,0,0,0,0,0,0,0,0,0,0,0,0,0,0,0,0,0,0,0,0,0,0,0,0,0,0,0,0,0,0,0,0,0,0,0,0,0,0,0,0,0,0,0,0,0,0,0,0,0,0,0,0,0,0,-0.0368,-0.0368,0,-0.0356,-0.0356,-0.0356,-0.0349,-0.0349,-0.0349,-0.0349,-0.0329,-0.0329,-0.0328,0,0,0,0,0,0,0,0,0,0,0,0,0,-0.0376,-0.0376,-0.0368,-0.0368,-0.0368,-0.0356,-0.0356,-0.0356,-0.0349,-0.0349,-0.0349,-0.0349,-0.033,-0.0329,-0.0328,0,0,0,0,0,0,0,0,0,0,0,0,0,-0.0369,-0.0376,-0.0368,-0.0363,-0.0363,-0.0356,-0.0356,-0.0356,-0.0349,-0.0349,-0.0349,-0.0349,-0.033,-0.0329,-0.0328,-0.0323,0,0,-0.0326,-0.0326,0,0,0,0,0,0,0,0,-0.0369,-0.0368,-0.0364,-0.0364,-0.0363,-0.0354,-0.0352,-0.0345,-0.0349,-0.0354,-0.0349,-0.0349,-0.0337,-0.0336,-0.0333,-0.0322,-0.0322,-0.0326,-0.0325,-0.0325,-0.0325,0,0,0,0,0,0,0,-0.037,-0.0369,-0.0363,-0.0364,-0.0363,-0.0359,-0.0358,-0.035,-0.0345,-0.0353,-0.0353,-0.0352,-0.0337,-0.0334,-0.0333,-0.0321,-0.0326,-0.0325,-0.0325,-0.0324,-0.0321,-0.0321,0,0,0,0,0,0,-0.0373,-0.0369,-0.0364,-0.0363,-0.0367,-0.0359,-0.0357,-0.0357,-0.0345,-0.0344,-0.0352,-0.0352,-0.0335,-0.0334,-0.0332,-0.0315,-0.0325,-0.0324,-0.0324,-0.0321,-0.0321,-0.0322,0,0,0,0,0,0,-0.0373,-0.0372,-0.0364,-0.0366,-0.0365,-0.0359,-0.0358,-0.0357,-0.0351,-0.0345,-0.0343,-0.0347,-0.0335,-0.0333,-0.033,-0.0314,-0.0324,-0.0323,-0.032,-0.0321,-0.0321,-0.0287,0,0,0,0,0,0,-0.0373,-0.0372,-0.0365,-0.0366,-0.0365,-0.0351,-0.0358,-0.0356,-0.0351,-0.035,-0.034,-0.0339,-0.0335,-0.0331,-0.0329,-0.0313,-0.0323,-0.032,-0.0321,-0.0321,-0.0288,-0.0286,-0.0285,0,0,0,0,0,-0.0373,-0.0358,-0.0364,-0.0363,-0.0357,-0.0351,-0.0349,-0.0345,-0.0351,-0.0341,-0.0346,-0.0339,-0.0334,-0.033,-0.0328,-0.0312,-0.0319,-0.032,-0.0321,-0.0288,-0.0287,-0.0285,0,0,0,0,0,0,-0.0344,-0.0356,-0.0363,-0.0349,-0.0349,-0.035,-0.0336,-0.0343,-0.034,-0.0338,-0.034,-0.0339,-0.0332,-0.0333,-0.033,-0.0317,-0.0327,-0.0327,-0.0303,-0.0301,-0.03,-0.0279,-0.0322,0,0,0,0,0,-0.0339,-0.0336,-0.0346,-0.0331,-0.0332,-0.0337,-0.0332,-0.0334,-0.0335,-0.0333,-0.033,-0.0332,-0.0334,-0.0327,-0.0328,-0.0315,-0.033,-0.0308,-0.0306,-0.0305,-0.0289,-0.0315,-0.0314,-0.0324,-0.0324,-0.0324,0,0,-0.0321,-0.0327,-0.0323,-0.0326,-0.0325,-0.0313,-0.0333,-0.0323,-0.0311,-0.0331,-0.0311,-0.0327,-0.0333,-0.0323,-0.032,-0.0319,-0.0312,-0.0306,-0.0304,-0.0289,-0.0316,-0.0315,-0.0314,-0.0325,-0.0325,-0.0325,0,0,-0.0281,-0.0293,-0.0276,-0.0279,-0.0281,-0.0287,-0.0286,-0.0291,-0.0289,-0.0282,-0.0299,-0.0308,-0.0301,-0.0305,-0.0307,-0.0301,-0.031,-0.0303,-0.0268,-0.0294,-0.0293,-0.0292,-0.0315,-0.0316,-0.0296,-0.0296,-0.0296,0,-0.0252,-0.0239,-0.0267,-0.0252,-0.0242,-0.0276,-0.0249,-0.0256,-0.0258,-0.0252,-0.0269,-0.0279,-0.029,-0.028,-0.0282,-0.0294,-0.0311,-0.0269,-0.029,-0.029,-0.029,-0.0313,-0.0315,-0.0294,-0.0294,-0.0294,-0.0295,0,-0.0208,-0.0192,-0.0181,-0.0178,-0.0174,-0.0157,-0.0176,-0.0174,-0.0187,-0.0195,-0.0196,-0.0226,-0.0225,-0.0241,-0.0256,-0.0257,-0.0272,-0.0291,-0.0289,-0.0286,-0.0312,-0.0315,-0.0292,-0.0292,-0.0293,-0.0293,0,0,-0.0144,-0.0147,-0.0139,-0.0121,-0.0132,-0.0119,-0.011,-0.0103,-0.0085,-0.0115,-0.0093,-0.0127,-0.0151,-0.0156,-0.0187,-0.0215,-0.0241,-0.0246,-0.0248,-0.0258,-0.0296,-0.0336,-0.0343,-0.0263,-0.0264,-0.0264,-0.0317,0,-0.0089,-0.0046,-0.0065,-0.0014,0.001,-0.0019,-0.0002,-0.0007,-0.002,-0.0013,-0.0064,-0.0056,-0.0116,-0.0113,-0.0155,-0.0217,-0.0245,-0.0224,-0.0305,-0.0307,-0.0335,-0.0346,-0.0334,-0.0383,-0.032,-0.032,-0.032,0,-0.003,-0.001,0.0048,0.0074,0.0083,0.0108,0.0131,0.0143,0.0125,0.0112,0.0089,0.0049,0.0008,-0.0046,-0.015,-0.0135,-0.0205,-0.0264,-0.0268,-0.0314,-0.0352,-0.0376,-0.039,-0.0325,-0.0325,-0.0324,-0.0324,0,0.0037,0.0076,0.0128,0.0136,0.0153,0.0184,0.0199,0.0195,0.0216,0.0204,0.0211,0.0142,0.0123,0.0016,-0.0116,-0.0128,-0.024,-0.027,-0.0371,-0.0375,-0.0383,-0.0388,-0.0335,-0.0335,-0.0335,-0.0335,-0.0335,0,0.0103,0.015,0.017,0.0199,0.0273,0.0262,0.0331,0.0329,0.0336,0.0363,0.0292,0.0283,0.0137,0.0048,-0.0083,-0.0238,-0.0215,-0.0362,-0.0391,-0.0374,-0.0376,-0.0338,-0.0338,-0.0337,-0.0337,-0.0336,-0.0336,0,0.0171,0.018,0.0248,0.0286,0.0309,0.0368,0.0422,0.0459,0.0457,0.0489,0.0492,0.04,0.027,0.0114,-0.0059,-0.0183,-0.033,-0.0386,-0.0357,-0.0382,-0.0456,-0.0453,-0.0505,-0.0507,-0.0508,-0.051,-0.0511,0,0.0211,0.0251,0.032,0.0364,0.0391,0.0467,0.0512,0.0528,0.0555,0.0548,0.0558,0.0462,0.0348,0.008,-0.0126,-0.0348,-0.0361,-0.0469,-0.0495,-0.045,-0.0473,-0.0468,-0.0463,-0.0494,-0.0495,-0.0496,-0.0496,0,0.0284,0.031,0.0351,0.0444,0.0511,0.0579,0.064,0.0667,0.0672,0.0667,0.0629,0.0543,0.0308,0.005,-0.0232,-0.0367,-0.0438,-0.0493,-0.0447,-0.0457,-0.0446,-0.0466,-0.0461,-0.0503,-0.0502,-0.0502,-0.0501,-0.0501,0.0336,0.038,0.0433,0.0523,0.0602,0.0667,0.072,0.0738,0.0755,0.071,0.0641,0.0479,0.0239,-0.0182,-0.0346,-0.0482,-0.0502,-0.0581,-0.0576,-0.0571,-0.0564,-0.0557,-0.0633,-0.0633,-0.0633,-0.0633,-0.0633,0,0.038,0.0428,0.0506,0.06,0.0683,0.0729,0.0789,0.0784,0.0783,0.0675,0.0597,0.0283,0.0009,-0.0199,-0.0418,-0.0582,-0.0553,-0.0612,-0.0554,-0.0549,-0.0545,-0.0533,-0.0595,-0.0595,-0.0595,-0.0595,0,0,0.0402,0.0467,0.0501,0.0643,0.073,0.0835,0.0873,0.0828,0.0745,0.056,0.0426,0.0231,-0.0039,-0.0211,-0.0397,-0.0485,-0.047,-0.0491,-0.0515,-0.0422,-0.0415,-0.0533,-0.0511,0,0,0,0,0]}],[{"header":{"parameterUnit":"m.s-1","parameterCategory":2,"la1":30.2991,"la2":30.254,"lo1":-89.0895,"lo2":-89.0444,"dy":0.0017,"dx":0.0017,"nx":28,"ny":28,"refTime":"2023-07-18T21:00:00:Z","depth":"4","parameterNumber":2,"parameterNumberName":"U-component_of_CURRENTS"},"data":[0,0,0,0,0,0,0,0,0,0,0,0,0,0,0,0,0,0,0,0,0,0,0,0,0,0,0,0,0,0,0,0,0,0,0,0,0,0,0,0,0,0,0,0,0,0,0,0,0,0,0,0,0,0,0,0,0,0,0.0215,0.0215,0,0.0215,0.0215,0.0215,0.0225,0.0226,0.0226,0.0226,0.0221,0.0221,0.022,0,0,0,0,0,0,0,0,0,0,0,0,0,0.0212,0.0212,0.0215,0.0215,0.0216,0.0215,0.0215,0.0215,0.0225,0.0226,0.0226,0.0226,0.0221,0.0221,0.022,0,0,0,0,0,0,0,0,0,0,0,0,0,0.0212,0.0212,0.0215,0.0221,0.0222,0.0215,0.0215,0.0215,0.0225,0.0226,0.0226,0.0227,0.0221,0.0221,0.022,0.0205,0,0,0.0218,0.0218,0,0,0,0,0,0,0,0,0.0212,0.0212,0.022,0.0221,0.0221,0.0222,0.0212,0.0212,0.0225,0.0223,0.0226,0.0227,0.0221,0.022,0.0218,0.0205,0.0205,0.0218,0.0217,0.0217,0.0217,0,0,0,0,0,0,0,0.0212,0.0212,0.0214,0.022,0.0221,0.022,0.022,0.0212,0.0218,0.0223,0.0224,0.0225,0.0221,0.0219,0.0218,0.0205,0.0218,0.0217,0.0217,0.0217,0.0201,0.0201,0,0,0,0,0,0,0.0214,0.0212,0.0214,0.0214,0.0219,0.0219,0.022,0.022,0.0218,0.0219,0.0225,0.0226,0.0219,0.0219,0.0218,0.0228,0.0217,0.0216,0.0216,0.0201,0.0201,0.0201,0,0,0,0,0,0,0.0214,0.0214,0.0214,0.0214,0.0214,0.0219,0.0219,0.022,0.023,0.022,0.022,0.0235,0.022,0.0219,0.0216,0.0227,0.0216,0.0216,0.0201,0.0201,0.0201,0.0231,0,0,0,0,0,0,0.0213,0.0214,0.0217,0.0214,0.0214,0.0221,0.0219,0.022,0.0229,0.0231,0.0229,0.0228,0.022,0.0217,0.0216,0.0226,0.0215,0.0201,0.0201,0.0201,0.023,0.0232,0.0233,0,0,0,0,0,0.0213,0.0215,0.0217,0.0218,0.0218,0.0222,0.0222,0.0226,0.0229,0.0236,0.023,0.0229,0.0216,0.0217,0.0215,0.0225,0.0201,0.0201,0.0201,0.0229,0.0231,0.0233,0,0,0,0,0,0,0.0211,0.0216,0.0219,0.022,0.0226,0.0224,0.0229,0.0232,0.0233,0.0235,0.0227,0.0225,0.0226,0.0219,0.0219,0.0219,0.0209,0.0209,0.0231,0.0233,0.0235,0.024,0.0214,0,0,0,0,0,0.0213,0.0218,0.0221,0.0224,0.0228,0.0231,0.0234,0.0238,0.0237,0.0239,0.0237,0.0231,0.0222,0.0223,0.0213,0.0214,0.0214,0.0219,0.0221,0.0223,0.0225,0.0228,0.0231,0.0201,0.0201,0.0201,0,0,0.0209,0.0215,0.0216,0.0224,0.0228,0.0235,0.0234,0.0243,0.0248,0.0236,0.0244,0.0236,0.0221,0.0221,0.0221,0.022,0.0233,0.0223,0.0225,0.0226,0.0228,0.0231,0.0234,0.0201,0.0201,0.0201,0,0,0.0209,0.0215,0.022,0.0229,0.0241,0.0243,0.0249,0.0255,0.026,0.0264,0.0254,0.0253,0.0246,0.0238,0.0231,0.0237,0.0239,0.0237,0.0257,0.026,0.0262,0.0265,0.0278,0.0282,0.0243,0.0243,0.0243,0,0.0208,0.0215,0.0222,0.0234,0.0241,0.0249,0.0257,0.0261,0.0266,0.027,0.0272,0.0262,0.0253,0.0248,0.025,0.0243,0.0248,0.0251,0.0263,0.0266,0.0267,0.0281,0.0284,0.0244,0.0244,0.0244,0.0244,0,0.0211,0.0222,0.0227,0.0244,0.0251,0.0261,0.0269,0.0278,0.0286,0.029,0.0295,0.0284,0.0281,0.0278,0.0266,0.0274,0.0276,0.0263,0.0261,0.0272,0.0285,0.0288,0.0246,0.0246,0.0245,0.0245,0,0,0.0193,0.0224,0.0226,0.024,0.026,0.0266,0.0277,0.0288,0.0297,0.0307,0.0318,0.0307,0.0311,0.0303,0.0293,0.0298,0.0319,0.0292,0.0291,0.0311,0.0338,0.0362,0.0368,0.0312,0.0312,0.0312,0.0346,0,0.0195,0.022,0.0232,0.0252,0.0265,0.0278,0.0287,0.0298,0.0309,0.0322,0.0321,0.0325,0.0317,0.0319,0.0324,0.0314,0.0326,0.0311,0.0319,0.0319,0.0344,0.0371,0.0314,0.0348,0.0349,0.035,0.035,0,0.0191,0.0212,0.0233,0.0263,0.0269,0.028,0.03,0.031,0.0326,0.0335,0.0347,0.0347,0.0355,0.0346,0.0355,0.0348,0.0349,0.0345,0.0346,0.0359,0.0348,0.0331,0.0355,0.0355,0.0354,0.0354,0.0354,0,0.0175,0.021,0.0229,0.024,0.0272,0.0282,0.0298,0.0315,0.0324,0.0347,0.0359,0.037,0.0377,0.0379,0.0385,0.037,0.04,0.0374,0.0399,0.04,0.0355,0.0352,0.0384,0.0384,0.0384,0.0384,0.0384,0,0.017,0.0184,0.0226,0.0236,0.0256,0.0281,0.0297,0.0314,0.0336,0.0349,0.0368,0.0379,0.0386,0.0404,0.0401,0.0423,0.0417,0.0413,0.0413,0.0367,0.0365,0.0358,0.0354,0.0385,0.0385,0.0385,0.0385,0,0.0145,0.0173,0.0195,0.0235,0.0248,0.0261,0.0295,0.0305,0.0334,0.0352,0.0361,0.0391,0.0422,0.0439,0.045,0.0449,0.046,0.0468,0.044,0.0436,0.0452,0.045,0.0493,0.0494,0.0495,0.0496,0.0497,0,0.0135,0.0144,0.0186,0.0199,0.0218,0.0244,0.0259,0.0295,0.0309,0.0355,0.0362,0.0406,0.0426,0.0469,0.0485,0.051,0.0502,0.0512,0.0463,0.0469,0.0465,0.0461,0.0457,0.0498,0.0498,0.0499,0.0499,0,0.0111,0.0125,0.0142,0.0175,0.0194,0.0216,0.0246,0.0258,0.0301,0.0324,0.0362,0.0396,0.0442,0.047,0.0512,0.0516,0.0506,0.0522,0.0519,0.0473,0.0476,0.047,0.0465,0.0502,0.0502,0.0502,0.0501,0,0.0086,0.0092,0.012,0.0145,0.017,0.0194,0.0212,0.0246,0.027,0.0327,0.0337,0.0392,0.0427,0.0475,0.0503,0.0531,0.0515,0.0495,0.0493,0.0489,0.0477,0.0479,0.0518,0,0,0,0,0,0.0063,0.0073,0.0094,0.0128,0.0153,0.0173,0.0207,0.0228,0.0271,0.0291,0.0319,0.036,0.0423,0.0453,0.0482,0.0509,0.0518,0.0543,0.0492,0.0522,0.0518,0.0506,0,0,0,0,0,0,0.0049,0.0065,0.0084,0.0112,0.0133,0.0163,0.0186,0.0215,0.0236,0.0278,0.0311,0.0349,0.0409,0.0399,0.0474,0.0487,0.0455,0.0581,0.0581,0.0524,0.052,0.0517,0.0504,0,0,0,0,0]},{"header":{"parameterUnit":"m.s-1","parameterCategory":2,"la1":30.2991,"la2":30.254,"lo1":-89.0895,"lo2":-89.0444,"dy":0.0017,"dx":0.0017,"nx":28,"ny":28,"refTime":"2023-07-18T21:00:00:Z","depth":"4","parameterNumber":3,"parameterNumberName":"V-component_of_CURRENTS"},"data":[0,0,0,0,0,0,0,0,0,0,0,0,0,0,0,0,0,0,0,0,0,0,0,0,0,0,0,0,0,0,0,0,0,0,0,0,0,0,0,0,0,0,0,0,0,0,0,0,0,0,0,0,0,0,0,0,0,0,-0.03,-0.03,0,-0.0344,-0.0344,-0.0345,-0.0388,-0.0389,-0.0389,-0.0389,-0.047,-0.0472,-0.0474,0,0,0,0,0,0,0,0,0,0,0,0,0,-0.029,-0.029,-0.03,-0.03,-0.03,-0.0344,-0.0344,-0.0345,-0.0388,-0.0389,-0.0389,-0.039,-0.047,-0.0472,-0.0474,0,0,0,0,0,0,0,0,0,0,0,0,0,-0.0311,-0.029,-0.03,-0.0326,-0.0329,-0.0344,-0.0344,-0.0345,-0.0388,-0.0389,-0.0389,-0.039,-0.0469,-0.0471,-0.0474,-0.0477,0,0,-0.0482,-0.0483,0,0,0,0,0,0,0,0,-0.031,-0.0312,-0.0322,-0.0324,-0.0327,-0.036,-0.0371,-0.0391,-0.0388,-0.0367,-0.0389,-0.039,-0.0435,-0.0441,-0.0449,-0.0481,-0.0485,-0.0482,-0.0484,-0.0485,-0.0486,0,0,0,0,0,0,0,-0.0308,-0.031,-0.0319,-0.0322,-0.0325,-0.0348,-0.0352,-0.0375,-0.0399,-0.0369,-0.0372,-0.0374,-0.0437,-0.0446,-0.0451,-0.0486,-0.0482,-0.0484,-0.0486,-0.0487,-0.0585,-0.0586,0,0,0,0,0,0,-0.0297,-0.0309,-0.0317,-0.032,-0.0318,-0.0348,-0.0352,-0.035,-0.0398,-0.0405,-0.0374,-0.0376,-0.0442,-0.0448,-0.0454,-0.0509,-0.0485,-0.0487,-0.0489,-0.0584,-0.0585,-0.0586,0,0,0,0,0,0,-0.0297,-0.0297,-0.0315,-0.0315,-0.0318,-0.0347,-0.0345,-0.035,-0.038,-0.0401,-0.0409,-0.0399,-0.0442,-0.0451,-0.0494,-0.051,-0.0489,-0.0491,-0.0582,-0.0584,-0.0585,-0.0587,0,0,0,0,0,0,-0.0296,-0.0297,-0.0304,-0.0313,-0.0318,-0.0338,-0.0344,-0.0351,-0.0378,-0.0383,-0.0425,-0.0432,-0.0444,-0.049,-0.0496,-0.0514,-0.0493,-0.0581,-0.0583,-0.0585,-0.0586,-0.0588,-0.0591,0,0,0,0,0,-0.0296,-0.0304,-0.0304,-0.0306,-0.0323,-0.0339,-0.0344,-0.0367,-0.0379,-0.0396,-0.0425,-0.0432,-0.0507,-0.0493,-0.05,-0.0519,-0.058,-0.0583,-0.0585,-0.0585,-0.0588,-0.0591,0,0,0,0,0,0,-0.0309,-0.0309,-0.031,-0.0319,-0.0332,-0.0346,-0.0367,-0.0378,-0.0413,-0.0425,-0.0445,-0.0454,-0.0499,-0.051,-0.0494,-0.0553,-0.0545,-0.0549,-0.0542,-0.0545,-0.0548,-0.0534,-0.0495,0,0,0,0,0,-0.0311,-0.0316,-0.032,-0.033,-0.0338,-0.0354,-0.0369,-0.0382,-0.0406,-0.0423,-0.0451,-0.0482,-0.051,-0.0529,-0.0557,-0.0588,-0.0585,-0.0606,-0.0608,-0.061,-0.0605,-0.0613,-0.0616,-0.0593,-0.0593,-0.0593,0,0,-0.0319,-0.032,-0.0324,-0.0334,-0.0348,-0.0358,-0.0366,-0.0391,-0.0405,-0.0426,-0.0468,-0.0496,-0.0522,-0.0558,-0.0578,-0.0572,-0.0616,-0.0613,-0.0614,-0.0608,-0.0616,-0.0618,-0.0619,-0.0595,-0.0595,-0.0595,0,0,-0.033,-0.0339,-0.0344,-0.0353,-0.0371,-0.0379,-0.0389,-0.0412,-0.0432,-0.0467,-0.0486,-0.0521,-0.0569,-0.0584,-0.0597,-0.063,-0.0631,-0.0648,-0.0648,-0.0657,-0.0658,-0.0659,-0.0657,-0.0658,-0.0647,-0.0647,-0.0647,0,-0.0343,-0.0342,-0.0352,-0.0358,-0.0368,-0.0388,-0.0398,-0.0417,-0.0454,-0.047,-0.0485,-0.0551,-0.0575,-0.0605,-0.0619,-0.0634,-0.0638,-0.0632,-0.0658,-0.0659,-0.066,-0.0657,-0.0658,-0.0647,-0.0647,-0.0647,-0.0647,0,-0.0348,-0.0356,-0.0365,-0.0372,-0.0386,-0.0404,-0.0419,-0.0445,-0.0472,-0.0488,-0.0536,-0.0567,-0.0602,-0.062,-0.0631,-0.0656,-0.0656,-0.0659,-0.0644,-0.0662,-0.0659,-0.066,-0.0648,-0.0648,-0.0648,-0.0648,0,0,-0.0359,-0.0365,-0.0371,-0.0374,-0.0396,-0.0406,-0.0431,-0.0455,-0.0472,-0.0515,-0.0538,-0.0589,-0.0608,-0.0624,-0.0644,-0.0654,-0.0667,-0.0663,-0.0663,-0.065,-0.0681,-0.0641,-0.0638,-0.0678,-0.0678,-0.0678,-0.0675,0,-0.0365,-0.0371,-0.0376,-0.0392,-0.0398,-0.0419,-0.0436,-0.0462,-0.0491,-0.0519,-0.0553,-0.0586,-0.0608,-0.0627,-0.0642,-0.0663,-0.067,-0.0667,-0.0675,-0.0675,-0.0629,-0.0638,-0.0679,-0.0675,-0.0676,-0.0676,-0.0676,0,-0.037,-0.0372,-0.0383,-0.0394,-0.04,-0.0414,-0.0445,-0.0461,-0.0497,-0.052,-0.0554,-0.058,-0.061,-0.0622,-0.0656,-0.0656,-0.0669,-0.068,-0.068,-0.064,-0.0637,-0.0656,-0.0677,-0.0677,-0.0677,-0.0677,-0.0677,0,-0.0368,-0.0379,-0.0388,-0.0393,-0.0408,-0.0424,-0.0439,-0.047,-0.0481,-0.052,-0.053,-0.0573,-0.0589,-0.0619,-0.0646,-0.0656,-0.067,-0.0683,-0.0656,-0.0653,-0.0688,-0.0687,-0.0698,-0.0698,-0.0698,-0.0698,-0.0698,0,-0.037,-0.0379,-0.039,-0.0395,-0.0407,-0.0423,-0.0442,-0.0462,-0.0483,-0.0487,-0.053,-0.0532,-0.059,-0.0606,-0.0637,-0.0643,-0.0662,-0.0652,-0.0649,-0.069,-0.0689,-0.0688,-0.0687,-0.0698,-0.0698,-0.0698,-0.0698,0,-0.0368,-0.0376,-0.0383,-0.04,-0.0407,-0.0419,-0.0435,-0.0442,-0.0464,-0.0467,-0.0476,-0.0503,-0.0519,-0.0562,-0.06,-0.0616,-0.0634,-0.063,-0.0659,-0.066,-0.0616,-0.0615,-0.0603,-0.0602,-0.06,-0.0599,-0.0598,0,-0.0365,-0.037,-0.0384,-0.0387,-0.0397,-0.0412,-0.0418,-0.0437,-0.0436,-0.0439,-0.0432,-0.0448,-0.0466,-0.0478,-0.0535,-0.058,-0.0586,-0.0598,-0.062,-0.0606,-0.0606,-0.0607,-0.0608,-0.0597,-0.0596,-0.0596,-0.0596,0,-0.0358,-0.0369,-0.0372,-0.0377,-0.0385,-0.0386,-0.0394,-0.0386,-0.0395,-0.0406,-0.0377,-0.0393,-0.0401,-0.0442,-0.0473,-0.051,-0.0596,-0.0585,-0.0589,-0.061,-0.0599,-0.0599,-0.0602,-0.0591,-0.0592,-0.0592,-0.0593,0,-0.0354,-0.0352,-0.0359,-0.0361,-0.0368,-0.0364,-0.0368,-0.0353,-0.035,-0.0346,-0.0329,-0.0349,-0.0368,-0.0403,-0.0434,-0.0464,-0.0479,-0.0497,-0.0505,-0.0511,-0.0489,-0.0462,-0.0405,0,0,0,0,0,-0.0346,-0.0341,-0.034,-0.0341,-0.0349,-0.0356,-0.0351,-0.0351,-0.0347,-0.0313,-0.0319,-0.0321,-0.0349,-0.0368,-0.0388,-0.0431,-0.0503,-0.0458,-0.0532,-0.0568,-0.0573,-0.056,0,0,0,0,0,0,-0.0337,-0.0338,-0.0333,-0.0328,-0.0329,-0.0335,-0.0334,-0.0329,-0.0309,-0.0303,-0.0313,-0.032,-0.0352,-0.0332,-0.0384,-0.0396,-0.0445,-0.0477,-0.0477,-0.0565,-0.0569,-0.0573,-0.0562,0,0,0,0,0]}]]